Starlink 2187

operational
NORAD ID: 48562 Int'l Des: 2021-041 Owner: SPXS Country: US Constellation: starlink
LEOCIRCULARSTARLINK_TYPE

Über Starlink 2187

Beschreibung wird geladen...

Live-Position

3D-Globus wird geladen...

Nächste Überflüge

Höhenverlauf

Altitude vs Time

uPlot chart will show altitude changes over time

Zweizeiliger Elementsatz

1 48562U 21041K 25259.12365386 .00006517 00000-0 45584-3 0 9998
2 48562 53.0533 195.2774 0001425 86.2899 273.8253 15.06410167238896
Epoch: 16. Sept. 2025 • Age: 9 hours

Aktueller Status

Höhe 548.7 km
Geschwindigkeit 7.59 km/s
Subsatellitenpunkt 32.65°N, 176.3°E
Startdatum 15. Mai 2021
Alter 4.3 years
Typ internet

Technische Details

Klassifizierung Payload
Masse 260.00 kg
Trockenmasse 248.00 kg
Gesamtmasse 260.00 kg
Länge 0.20 m
Durchmesser 2.80 m
Spannweite 9.00 m
Form Box + pan
Hersteller SPXS
Bus-Typ Starlink
Phasenstatus In Orbit
Besitzer/Staat SPXS/US

Große Konstellationen

Loading constellations...